map of KIKW home
KIKW - Airport
Location
City:  Midland, Michigan, United States
Name:Jack Barstow Airport
ICAO:KIKW
FAA LID:IKW

Details
Type:Airport (Airfield)
Use:Public/Civil
Latitude:4339'47"N (43.662917)
Longitude:8415'41"W (-84.261305)
Datum:WGS 1984
Elevation:634 ft (193 m)
Variation:6.89W (WMM2015 magnetic declination)
-0.03 annual change
Runways:2
Longest:3801 × 75 ft (1159 × 23 m), paved

Time
Time Zone:UTC-5 (DST-4)
Local Time:

Weather
METAR:KIKW 181754Z AUTO 25006KT 10SM OVC007 04/02 A3000 RMK AO2 T00350019 10035 20020

Related Locations
Nearby:
Farthest:MQZ: 11201 mi / 18027 km
Margaret River [Margaret River Airport], WA, AU

Find:

   beyond  
but within

Other Information
Maps:
NOTAMs:
Links:
Sources:

  
flag of United States
flag of Michigan
  

Sectional Chart

Flight Planning
at skyvector.com

Satellite Image

Google Maps Satellite view

 

Copyright © 2004-2017 Karl L. Swartz. All rights reserved.
The Great Circle Mapper name and logo are trademarks of the Great Circle Mapper.
All other trademarks mentioned herein belong to their respective owners.
Please see credits for attibutions and further copyright information.

  Follow gcmap on Facebook Follow gcmap on Twitter Follow gcmap on Google+ GCmap on LinkedIn

hCard Microformat

Geo Microformat